Regional Weather Roundup
Issued by NWS Grand Forks, ND

Home | Current Version | Previous Version | Graphics & Text | Print | Product List | Glossary On
Versions: 1 2 3 4 5 6 7 8 9 10 11 12 13 14 15 16 17 18 19 20 21 22 23 24 25 26 27 28 29 30 31 32 33 34 35 36 37 38 39 40 41 42 43 44 45 46 47 48 49 50
000
ASUS43 KFGF 170631
RWRFGF
PRAIRIE TO PINES  WEATHER ROUNDUP
NATIONAL WEATHER SERVICE EASTERN NORTH DAKOTA/GRAND FORKS ND
100 AM CDT THU AUG 17 2017

 **SATELLITE DATA USED TO AUGMENT SKY COVER AT AUTOMATED STATIONS**
 *****  WEATHER ACROSS EASTERN NORTH DAKOTA  *****

CITY           SKY/WX    TMP DP  RH WIND       PRES   REMARKS
GRAND FORKS    FAIR      60  60 100 NW7       29.82F
6HR MIN TEMP:  60; 6HR MAX TEMP:  69;

GRAND FRKS AFB FAIR      59  59 100 N7        29.83F
DEVILS LAKE    FAIR      57  57 100 N3        29.89R FOG
6HR MIN TEMP:  58; 6HR MAX TEMP:  74;

FARGO          CLOUDY    65  64  97 N12       29.78F
WAHPETON ARPT  CLOUDY    63  61  94 N13       29.75F
$$

 ***** WEATHER ACROSS CENTRAL AND WESTERN NORTH DAKOTA  *****

CITY           SKY/WX    TMP DP  RH WIND       PRES   REMARKS
BISMARCK       FAIR      58  56  93 CALM      29.91F
6HR MIN TEMP:  57; 6HR MAX TEMP:  78;

MINOT          FAIR      60  53  77 CALM      29.87S
6HR MIN TEMP:  60; 6HR MAX TEMP:  79;

JAMESTOWN      FAIR      57  56  96 NW6       29.86S
6HR MIN TEMP:  57; 6HR MAX TEMP:  70;

MINOT AFB      FAIR      56  51  85 CALM      29.86S
GARRISON         N/A     55  54  96 CALM      29.90R
WILLISTON      FAIR      72  57  59 S6        29.85F
6HR MIN TEMP:  72; 6HR MAX TEMP:  82;

DICKINSON      FAIR      58  53  84 SE9       29.91S
6HR MIN TEMP:  58; 6HR MAX TEMP:  80;

HETTINGER      FAIR      58  51  78 SE6       29.96S
6HR MIN TEMP:  57; 6HR MAX TEMP:  79;

$$

 *****  OTHER AIRPORT OBSERVATIONS IN OUR AREA  *****

CITY           SKY/WX    TMP DP  RH WIND       PRES   REMARKS
WALHALLA       FOG       55  55 100 CALM      29.86S VSB 1/4
GRAFTON AIRPOR FAIR      59  59 100 NW6       29.86S FOG
VALLEY CITY AR   N/A     59  59 100 NW8       29.85F
CANDO          FAIR      55  55 100 CALM      29.90R
CAVALIER APRT  FOG       55  55 100 CALM      29.85S VSB 1/4
GWINNER        CLEAR     61  61 100 N12       29.81F
SHEYENNE NWR     N/A     64  64 100 N7        29.95S
ROLLA          FAIR      52  52 100 CALM      29.91R
 ***** THE ABOVE OBSERVATIONS ARE NON NWS ARE NOT QUALITY
       CONTROLLED AND MAY MIS-REPORT RAIN FOR SNOW...
$$

  *****  WEATHER ACROSS NORTHERN MINNESOTA  *****

CITY           SKY/WX    TMP DP  RH WIND       PRES   REMARKS
FLAG ISLAND    CLOUDY    63  57  82 CALM      29.84S
WARROAD        CLOUDY    63  59  88 E8        29.84F
ROSEAU         CLOUDY    63  57  82 CALM      29.84S HAZE
HALLOCK        CLOUDY    61  59  94 N5        29.84S
THF RVR FALLS  CLOUDY    62  62 100 N12       29.82F FOG
6HR MIN TEMP:  62; 6HR MAX TEMP:  65;

BAUDETTE       RAIN      61  61 100 E7        29.82S FOG
6HR MIN TEMP:  61; 6HR MAX TEMP:  62; 6HR PCP:  0.21;

WASKISH        LGT RAIN  63  63 100 NE5       29.81S
CROOKSTON      CLOUDY    63  61  94 N7        29.81F
STEPHEN NDAWN    N/A     61  59  94 N6          N/A
GREENBUSH NDAW   N/A    N/A N/A N/A NE5         N/A
$$
  *****  WEATHER ACROSS CENTRAL AND WEST MINNESOTA  *****

CITY           SKY/WX    TMP DP  RH WIND       PRES   REMARKS
FOSSTON        HVY RAIN  63  61  94 N6        29.80F
BEMIDJI        RAIN      63  62  97 E8        29.78F
PARK RAPIDS    RAIN      64  62  93 NE7       29.75F
6HR MIN TEMP:  64; 6HR MAX TEMP:  67; 6HR PCP:  0.24;

ELBOW LAKE     RAIN      64  64 100 NW8       29.72F
WADENA         RAIN      63  63 100 N9          N/A
DETROIT LAKES  RAIN      64  63  94 N5        29.77F
MOORHEAD       CLOUDY    64  63  94 N10G17    29.78F
FERGUS FALLS   DRIZZLE   66  66 100 N10       29.73F
MORRIS MN      DRIZZLE   66  64  94 N12       29.70R
STAPLES        LGT RAIN  63  63 100 NE8       29.71F
$$
  *****  WEATHER ELSEWHERE ACROSS MINNESOTA  *****

CITY           SKY/WX    TMP DP  RH WIND       PRES   REMARKS
DULUTH         LGT RAIN  60  60 100 E17G25    29.75F
6HR MIN TEMP:  59; 6HR MAX TEMP:  60; 6HR PCP:  0.49;

INTRNTL FALLS  RAIN      61  59  93 NE5       29.83F FOG
6HR MIN TEMP:  61; 6HR MAX TEMP:  62; 6HR PCP:  0.30;

ELY            LGT RAIN  57  55  94 NE3       29.81F
CLOQUET        RAIN      61  59  94 E7        29.74F
WHEATON        DRIZZLE   64  63  94 NW16      29.75S
BRAINERD       LGT RAIN  62  61  96 NE10      29.70F FOG
6HR MIN TEMP:  61; 6HR MAX TEMP:  65; 6HR PCP:  1.29;

HIBBING        RAIN      58  57  97 NE5       29.80F FOG
6HR MIN TEMP:  57; 6HR MAX TEMP:  61; 6HR PCP:  0.68;

ALEXANDRIA     LGT RAIN  65  64  97 N13G20    29.71F
6HR MIN TEMP:  65; 6HR MAX TEMP:  67; 6HR PCP:  0.52;

SAINT CLOUD    CLOUDY    66  66 100 NE12G21   29.57F
6HR MIN TEMP:  66; 6HR MAX TEMP:  69; 6HR PCP:  0.83;

MINNEAPOLIS    CLOUDY    72  67  84 S14       29.54F
6HR MIN TEMP:  70; 6HR MAX TEMP:  76; 6HR PCP:  1.44;

$$

  *****  WEATHER ACROSS SOUTH DAKOTA  *****

CITY           SKY/WX    TMP DP  RH WIND       PRES   REMARKS
SIOUX FALLS    CLOUDY    67  67 100 NW10G20   29.75S
6HR MIN TEMP:  66; 6HR MAX TEMP:  69; 6HR PCP:  0.16;

BROOKINGS      CLOUDY    65  63  93 NW16G23   29.75R
WATERTOWN      CLOUDY    64  63  96 NW14      29.76S
6HR MIN TEMP:  64; 6HR MAX TEMP:  66; 6HR PCP:  0.15;

HURON          FAIR      63  63 100 NW13      29.82F
6HR MIN TEMP:  63; 6HR MAX TEMP:  67; 6HR PCP: TRACE;

SISSETON         N/A     65  64  97 N18       29.75F
ABERDEEN       FAIR      61  61 100 NW9       29.84S
6HR MIN TEMP:  61; 6HR MAX TEMP:  67;

MITCHELL       FAIR      65  64  97 NW12      29.82F
PIERRE         FAIR      57  55  93 NW7       29.91R
6HR MIN TEMP:  56; 6HR MAX TEMP:  72;

MOBRIDGE       FAIR      58  55  90 N5        29.90R
RAPID CITY     FAIR      59  51  75 SE3       29.99F
6HR MIN TEMP:  58; 6HR MAX TEMP:  79;

$$

  *****  SOME WEATHER IN NEARBY STATES *****

CITY           SKY/WX    TMP DP  RH WIND       PRES   REMARKS
GLASGOW MT     FAIR      64  43  46 E10       29.81S
6HR MIN TEMP:  64; 6HR MAX TEMP:  88;

GREAT FALLS MT FAIR      58  27  30 W8        29.95R
6HR MIN TEMP:  56; 6HR MAX TEMP:  85;

CHEYENNE WY    FAIR      57  46  66 SW10      30.19F
6HR MIN TEMP:  56; 6HR MAX TEMP:  70;

SCOTTSBLUFF NE FAIR      58  51  78 E5        30.07F
6HR MIN TEMP:  57; 6HR MAX TEMP:  78;

OMAHA NE       FAIR      68  60  75 W13G21    29.82S
6HR MIN TEMP:  68; 6HR MAX TEMP:  78; 6HR PCP: TRACE;

DES MOINES IA  MOCLDY    71  66  84 W8        29.76S
6HR MIN TEMP:  71; 6HR MAX TEMP:  85;

DAVENPORT IA   NOT AVBL
CHICAGO IL     MOCLDY    77  72  84 S14       29.80F
6HR MIN TEMP:  77; 6HR MAX TEMP:  79; 6HR PCP:  0.02;

EAU CLAIRE WI  CLOUDY    70  67  90 E13       29.63F
6HR MIN TEMP:  69; 6HR MAX TEMP:  76; 6HR PCP:  1.18;

LA CROSSE WI   MOCLDY    77  73  87 S15       29.64S
6HR MIN TEMP:  75; 6HR MAX TEMP:  78; 6HR PCP:  0.19;

$$

  *****  SOME NATIONAL WEATHER *****

CITY           SKY/WX    TMP DP  RH WIND       PRES   REMARKS
LA GUARDIA NY  FAIR      75  61  61 NE7       30.02R
6HR MIN TEMP:  75; 6HR MAX TEMP:  82;

RALEIGH NC     MOCLDY    77  74  90 CALM      30.05S
6HR MIN TEMP:  77; 6HR MAX TEMP:  85;

ATLANTA GA     FAIR      79  74  84 W5        30.07F
6HR MIN TEMP:  79; 6HR MAX TEMP:  86;

NEW ORLEANS LA FAIR      80  76  87 S3        30.05F
6HR MIN TEMP:  79; 6HR MAX TEMP:  81;

OKLAHOMA CITY  CLOUDY    71  70  96 CALM      29.93S
6HR MIN TEMP:  70; 6HR MAX TEMP:  87; 6HR PCP:  0.52;

ALBUQUERQUE NM FAIR      73  40  30 SE3       30.15R
6HR MIN TEMP:  73; 6HR MAX TEMP:  88;

SALT LAKE CITY FAIR      73  39  29 E9        30.05R
6HR MIN TEMP:  73; 6HR MAX TEMP:  88;

LOS ANGELES CA FAIR      66  61  84 SW8       29.96S
6HR MIN TEMP:  66; 6HR MAX TEMP:  71;

BOISE ID       FAIR      69  38  32 CALM      29.98R
6HR MIN TEMP:  69; 6HR M



USA.gov is the U.S. government's official web portal to all federal, state and local government web resources and services.